Ballina Observation History
Time Wind Speed Temp Pressure Rel. Hum Rain
30/04:00am WSW 7-10 kts 14.8°c 1024.0 hPa 95% 5.8mm
30/03:30am W 8-9 kts 14.4°c 1024.0 hPa 96% 5.8mm
30/03:00am W 7-8 kts 14.5°c 1023.8 hPa 94% 5.8mm
30/02:30am WSW 6-9 kts 14.6°c 1023.8 hPa 93% 5.4mm
30/02:03am SW 7-10 kts 15.2°c 1024.1 hPa 94% 5.4mm
30/02:00am SW 7-12 kts 15.2°c 1024.1 hPa 94% 5.4mm
30/01:47am SW 9-13 kts 15.3°c 1024.1 hPa 93% 5.2mm
30/01:30am SW 10-14 kts 15.1°c 1024.1 hPa 92% 4.2mm
30/01:00am WSW 9-12 kts 14.9°c 1024.2 hPa 91% 4.2mm
30/12:48am WSW 8-10 kts 15.2°c 1024.2 hPa 90% 4.0mm
30/12:47am WSW 8-10 kts 15.3°c 1024.2 hPa 90% 4.0mm
30/12:30am W 5-7 kts 15.4°c 1024.3 hPa 91% 3.8mm
30/12:29am W 5-8 kts 15.4°c 1024.3 hPa 91% 3.6mm
30/12:27am W 5-9 kts 15.5°c 1024.4 hPa 90% 3.2mm
30/12:26am W 6-9 kts 15.5°c 1024.4 hPa 90% 3.2mm
30/12:03am W 3-5 kts 15.7°c 1024.7 hPa 87% 1.0mm
30/12:00am W 3-5 kts 15.7°c 1024.6 hPa 87% 0.4mm
Time Wind Speed Temp Pressure Rel. Hum Rain
29/11:30pm WSW 8-11 kts 16.2°c 1024.3 hPa 85% 0.0mm
29/11:00pm WSW 8-10 kts 16.0°c 1024.7 hPa 86% 0.0mm
29/10:30pm SW 7-10 kts 17.2°c 1024.5 hPa 83% 0.0mm
29/10:00pm SSW 7-11 kts 17.2°c 1024.6 hPa 80% 0.0mm
29/09:30pm SSW 10-17 kts 18.8°c 1024.5 hPa 76% 0.0mm
29/09:00pm SW 11-18 kts 18.1°c 1024.5 hPa 76% 0.0mm
29/08:30pm SSW 11-16 kts 19.4°c 1024.2 hPa 71% 0.0mm
29/08:00pm S 11-17 kts 19.4°c 1024.2 hPa 69% 0.0mm
29/07:30pm S 11-16 kts 19.3°c 1024.0 hPa 67% 0.0mm
29/07:00pm S 12-18 kts 19.3°c 1023.9 hPa 68% 0.0mm
29/06:30pm S 12-16 kts 19.3°c 1023.7 hPa 69% 0.0mm
29/06:00pm S 15-21 kts 19.4°c 1023.4 hPa 68% 0.0mm
29/05:30pm S 14-20 kts 19.3°c 1023.2 hPa 70% 0.0mm
29/05:00pm S 12-18 kts 19.3°c 1023.1 hPa 70% 0.0mm
29/04:30pm S 12-18 kts 19.6°c 1022.9 hPa 69% 0.0mm
29/04:00pm S 14-23 kts 20.1°c 1022.5 hPa 69% 0.0mm
29/03:30pm S 15-22 kts 20.4°c 1022.3 hPa 68% 0.0mm
29/03:00pm S 14-21 kts 20.6°c 1022.1 hPa 67% 0.0mm
29/02:30pm SSW 14-19 kts 20.1°c 1022.0 hPa 71% 0.0mm
29/02:00pm S 15-20 kts 20.1°c 1022.2 hPa 71% 0.0mm
29/01:30pm S 15-21 kts 20.8°c 1022.1 hPa 68% 0.0mm
29/01:00pm S 15-21 kts 20.7°c 1022.2 hPa 72% 0.0mm
29/12:30pm S 13-19 kts 20.8°c 1022.6 hPa 74% 0.0mm
29/12:00pm SSW 14-20 kts 20.3°c 1022.8 hPa 74% 0.0mm
29/11:30am SSW 12-20 kts 20.5°c 1023.0 hPa 77% 0.0mm
29/11:00am SSW 10-17 kts 20.1°c 1023.2 hPa 80% 0.0mm
29/10:30am SSW 11-18 kts 20.9°c 1023.4 hPa 76% 0.0mm
29/10:00am SSW 11-19 kts 20.0°c 1023.5 hPa 76% 0.0mm
29/09:30am SSW 11-18 kts 19.8°c 1023.6 hPa 79% 0.0mm
29/09:00am SW 9-13 kts 19.1°c 1023.5 hPa 81% 7.8mm
29/08:30am SW 11-15 kts 18.3°c 1023.1 hPa 82% 7.8mm
29/08:00am SW 9-14 kts 17.5°c 1022.8 hPa 88% 7.8mm
29/07:30am SW 8-10 kts 16.1°c 1022.7 hPa 92% 7.8mm
29/07:00am SW 6-8 kts 15.6°c 1022.2 hPa 93% 7.8mm
29/06:30am WSW 7-9 kts 15.6°c 1022.0 hPa 93% 7.8mm
29/06:00am WSW 6-8 kts 16.0°c 1021.6 hPa 92% 7.8mm
29/05:30am WSW 7-9 kts 16.3°c 1021.1 hPa 91% 7.8mm
29/05:00am WSW 7-9 kts 16.7°c 1020.8 hPa 91% 7.8mm
29/04:30am WSW 8-10 kts 16.9°c 1020.5 hPa 91% 7.8mm
29/04:00am WSW 7-8 kts 17.0°c 1020.3 hPa 93% 7.8mm
29/03:30am W 6-8 kts 17.0°c 1020.5 hPa 94% 7.8mm
29/03:00am E 5-6 kts 16.9°c 1020.6 hPa 94% 7.8mm
29/02:30am CALM 0-2 kts 17.2°c 1020.5 hPa 92% 7.8mm
29/02:04am ENE 9-11 kts 16.9°c 1020.7 hPa 94% 7.6mm
29/02:01am ENE 9-11 kts 17.0°c 1020.6 hPa 94% 7.6mm
29/02:00am ENE 9-11 kts 17.0°c 1020.5 hPa 94% 7.6mm
29/01:40am ESE 3-6 kts 17.1°c 1020.7 hPa 93% 6.2mm
29/01:34am WSW 5-10 kts 17.1°c 1020.7 hPa 93% 2.4mm
29/01:30am W 7-10 kts 17.1°c 1020.5 hPa 92% 1.0mm
29/01:00am W 7-11 kts 17.6°c 1020.3 hPa 89% 0.8mm
29/12:30am SSW 4-6 kts 18.1°c 1020.4 hPa 91% 0.8mm
29/12:00am SW 6-8 kts 18.3°c 1020.5 hPa 91% 0.6mm
Time Wind Speed Temp Pressure Rel. Hum Rain
28/11:30pm SW 6-8 kts 18.2°c 1020.6 hPa 91% 0.2mm
28/11:00pm WSW 5-7 kts 17.8°c 1020.7 hPa 94% 0.0mm
28/10:30pm CALM 0 kts 16.6°c 1020.8 hPa 92% 0.0mm
28/10:00pm WSW 1-5 kts 16.8°c 1020.7 hPa 94% 0.0mm
28/09:30pm CALM 0 kts 16.5°c 1020.6 hPa 92% 0.0mm
28/09:00pm W 5-6 kts 16.2°c 1020.6 hPa 95% 0.0mm
28/08:30pm W 2-3 kts 16.6°c 1020.4 hPa 92% 0.0mm
28/08:00pm WSW 5 kts 16.4°c 1020.4 hPa 93% 0.0mm
28/07:30pm W 3-5 kts 16.7°c 1020.2 hPa 93% 0.0mm
28/07:00pm WNW 2-4 kts 16.8°c 1019.8 hPa 93% 0.0mm
28/06:30pm WSW 4-5 kts 16.6°c 1019.3 hPa 93% 0.0mm
28/06:00pm CALM 0 kts 17.2°c 1018.8 hPa 88% 0.0mm
28/05:30pm SE 3-4 kts 18.3°c 1018.7 hPa 84% 0.0mm
28/05:00pm SSE 5-8 kts 19.2°c 1018.6 hPa 77% 0.0mm
28/04:30pm SE 7-9 kts 20.3°c 1018.4 hPa 73% 0.0mm
28/04:00pm SSE 8-11 kts 21.1°c 1018.3 hPa 70% 0.0mm
28/03:30pm SSE 9-11 kts 21.5°c 1018.2 hPa 67% 0.0mm
28/03:00pm SE 9-11 kts 21.4°c 1018.1 hPa 70% 0.0mm
28/02:30pm SE 8-11 kts 22.1°c 1018.2 hPa 69% 0.0mm
28/02:00pm S 8-11 kts 22.3°c 1018.4 hPa 66% 0.0mm
28/01:30pm SSE 8-10 kts 22.4°c 1018.5 hPa 65% 0.0mm
28/01:00pm SSW 8-11 kts 22.3°c 1018.4 hPa 64% 0.0mm
28/12:30pm S 8-11 kts 22.6°c 1018.9 hPa 65% 0.0mm
28/12:00pm SSW 8-11 kts 21.7°c 1019.5 hPa 66% 0.0mm
28/11:30am SW 9-15 kts 21.9°c 1019.9 hPa 69% 0.0mm
28/11:00am SSW 10-13 kts 21.1°c 1020.3 hPa 72% 0.0mm
28/10:30am SW 8-11 kts 20.3°c 1020.1 hPa 75% 0.0mm
28/10:00am SW 7-11 kts 20.1°c 1020.7 hPa 75% 0.0mm
28/09:30am SW 8-11 kts 19.5°c 1021.0 hPa 76% 0.0mm
28/09:00am WSW 7-10 kts 18.6°c 1021.1 hPa 81% 0.0mm
28/08:30am WSW 6-8 kts 17.9°c 1020.8 hPa 85% 0.0mm
28/08:00am W 5-7 kts 16.9°c 1020.6 hPa 89% 0.0mm
28/07:30am WSW 6-7 kts 16.1°c 1020.1 hPa 90% 0.0mm
28/07:00am WSW 5-6 kts 15.4°c 1020.1 hPa 90% 0.0mm
28/06:30am WSW 5-6 kts 15.4°c 1019.8 hPa 90% 0.0mm
28/06:00am WSW 6-7 kts 15.6°c 1019.5 hPa 90% 0.0mm
28/05:30am WSW 7-8 kts 15.5°c 1019.3 hPa 91% 0.0mm
28/05:00am WSW 7-9 kts 15.4°c 1019.2 hPa 92% 0.0mm
28/04:30am WSW 6-7 kts 14.9°c 1018.9 hPa 92% 0.0mm
28/04:00am WSW 5 kts 15.5°c 1019.1 hPa 92% 0.0mm
28/03:30am W 5-6 kts 15.6°c 1018.7 hPa 93% 0.0mm
28/03:00am W 7 kts 15.2°c 1019.0 hPa 92% 0.0mm
28/02:30am W 7-8 kts 15.9°c 1018.8 hPa 92% 0.0mm
28/02:00am WSW 7-8 kts 15.8°c 1019.1 hPa 92% 0.0mm
28/01:30am WSW 6-8 kts 15.8°c 1019.2 hPa 92% 0.0mm
28/01:00am WSW 7 kts 15.8°c 1019.1 hPa 93% 0.0mm
28/12:30am WSW 6-8 kts 15.9°c 1019.2 hPa 92% 0.0mm
28/12:00am WSW 7-8 kts 16.2°c 1019.4 hPa 91% 0.0mm